KD5OH Weather Reports


time (UTC)temp
C
wind
direction
speed
KPH
gust
KPH
rain 1hr
cm
rain 24hr
cm
rain mn
cm
humidity
%
barometer
mb
20260903200138 35 256 6.4 12.9 0.00 0.00 0.00 20 1016.5
20260903194633 34 314 4.8 11.3 0.00 0.00 0.00 22 1016.7
20260903193145 34 293 4.8 9.7 0.00 0.00 0.00 22 1016.8
20260903191641 33 263 6.4 14.5 0.00 0.00 0.00 22 1017.2
20260903190133 33 327 8.0 22.5 0.00 0.00 0.00 23 1017.4
20260903184645 33 73 3.2 8.0 0.00 0.00 0.00 23 1017.8
20260903183140 33 277 4.8 14.5 0.00 0.00 0.00 23 1018.2
20260903181632 33 120 1.6 9.7 0.00 0.00 0.00 24 1018.5
20260903180128 32 66 0.0 9.7 0.00 0.00 0.00 26 1018.8
20260903174639 32 268 1.6 8.0 0.00 0.00 0.00 26 1019.0
20260903173150 31 112 0.0 6.4 0.00 0.00 0.00 27 1019.1
20260903171626 31 139 3.2 6.4 0.00 0.00 0.00 29 1019.1
20260903170139 31 293 0.0 4.8 0.00 0.00 0.00 31 1019.1
20260903164634 30 73 3.2 6.4 0.00 0.00 0.00 32 1019.2
20260903163126 29 278 1.6 4.8 0.00 0.00 0.00 34 1019.2
20260903161621 28 140 4.8 9.7 0.00 0.00 0.00 36 1019.3
20260903160155 28 225 4.8 11.3 0.00 0.00 0.00 37 1019.4
20260903154627 27 236 8.0 12.9 0.00 0.00 0.00 39 1019.4
20260903153144 27 199 9.7 16.1 0.00 0.00 0.00 40 1019.3
20260903151635 27 156 11.3 16.1 0.00 0.00 0.00 41 1019.4
20260903150128 26 130 14.5 24.1 0.00 0.00 0.00 43 1019.5
20260903144620 26 161 14.5 24.1 0.00 0.00 0.00 44 1019.6
20260903143132 25 162 12.9 20.9 0.00 0.00 0.00 46 1019.3
20260903141629 25 128 12.9 19.3 0.00 0.00 0.00 47 1019.2
20260903140120 24 125 12.9 24.1 0.00 0.00 0.00 46 1019.2
20260903134635 24 146 12.9 20.9 0.00 0.00 0.00 46 1019.0
20260903133127 24 194 8.0 14.5 0.00 0.00 0.00 46 1018.9
20260903131623 23 137 6.4 12.9 0.00 0.00 0.00 48 1018.7
20260903130136 22 125 8.0 14.5 0.00 0.00 0.00 48 1018.5
20260903124626 22 128 6.4 11.3 0.00 0.00 0.00 49 1018.2
20260903123123 22 139 3.2 11.3 0.00 0.00 0.00 49 1018.1
20260903121633 22 123 6.4 12.9 0.00 0.00 0.00 49 1018.0
20260903120130 23 129 6.4 14.5 0.00 0.00 0.00 48 1017.8
20260903114621 23 126 8.0 14.5 0.00 0.00 0.00 47 1017.7
20260903113134 23 156 11.3 16.1 0.00 0.00 0.00 45 1017.5
20260903111649 23 163 11.3 17.7 0.00 0.00 0.00 41 1017.3
20260903110121 24 158 8.0 19.3 0.00 0.00 0.00 39 1017.2
20260903104636 24 161 8.0 16.1 0.00 0.00 0.00 38 1017.3
20260903103129 24 187 4.8 9.7 0.00 0.00 0.00 38 1017.2
20260903101625 25 158 8.0 12.9 0.00 0.00 0.00 38 1017.2
20260903100136 25 156 6.4 9.7 0.00 0.00 0.00 38 1017.4
20260903094627 25 142 6.4 9.7 0.00 0.00 0.00 38 1017.3
20260903093122 24 190 3.2 6.4 0.00 0.00 0.00 40 1017.3
20260903091655 24 144 1.6 4.8 0.00 0.00 0.00 39 1017.1
20260903090130 24 152 0.0 4.8 0.00 0.00 0.00 39 1017.0
20260903084623 25 144 0.0 1.6 0.00 0.00 0.00 38 1017.0
20260903083155 25 132 3.2 8.0 0.00 0.00 0.00 37 1016.9
20260903081629 26 135 4.8 8.0 0.00 0.00 0.00 36 1016.9
20260903080122 26 156 3.2 9.7 0.00 0.00 0.00 35 1017.1
20260903074636 26 143 4.8 9.7 0.00 0.00 0.00 34 1017.2
20260903073128 27 169 1.6 9.7 0.00 0.00 0.00 33 1017.2
20260903071623 27 148 3.2 9.7 0.00 0.00 0.00 34 1017.1
20260903070135 28 157 4.8 11.3 0.00 0.00 0.00 32 1017.1
20260903064626 28 161 3.2 8.0 0.00 0.00 0.00 32 1017.1
20260903063121 28 120 6.4 9.7 0.00 0.00 0.00 31 1017.1
20260903061653 29 129 9.7 19.3 0.00 0.00 0.00 30 1017.2
20260903060127 28 139 9.7 19.3 0.00 0.00 0.00 31 1017.3
20260903054659 28 118 11.3 16.1 0.00 0.00 0.00 32 1017.3
20260903053150 26 131 3.2 9.7 0.00 0.00 0.00 35 1017.6
20260903051624 26 155 0.0 1.6 0.00 0.00 0.00 35 1017.3
20260903050138 26 180 0.0 0.0 0.00 0.00 0.00 35 1017.5
20260903044633 26 181 0.0 1.6 0.00 0.00 0.00 34 1017.4
20260903043126 27 210 0.0 0.0 0.00 0.00 0.00 34 1017.4
20260903041621 27 208 1.6 1.6 0.00 0.00 0.00 35 1017.4
20260903040135 28 113 0.0 0.0 0.00 0.00 0.00 31 1017.3
20260903034627 28 113 0.0 1.6 0.00 0.00 0.00 31 1017.3
20260903033122 28 111 0.0 1.6 0.00 0.00 0.00 30 1017.1
20260903031635 28 111 0.0 1.6 0.00 0.00 0.00 30 1016.8
20260903030132 28 118 0.0 1.6 0.00 0.00 0.00 30 1016.8
20260903024624 28 118 0.0 0.0 0.00 0.00 0.00 30 1016.7
20260903023139 28 117 0.0 1.6 0.00 0.00 0.00 32 1016.5
20260903021631 28 233 0.0 0.0 0.00 0.00 0.00 30 1016.4
20260903020143 29 233 0.0 0.0 0.00 0.00 0.00 29 1016.4
20260903014657 30 233 0.0 0.0 0.00 0.00 0.00 27 1016.2
20260903013129 31 233 0.0 0.0 0.00 0.00 0.00 25 1016.1
20260903011644 32 233 0.0 0.0 0.00 0.00 0.00 23 1016.1
20260903010137 33 233 0.0 8.0 0.00 0.00 0.00 22 1016.0
20260903004627 33 164 0.0 1.6 0.00 0.00 0.00 21 1016.0
20260903003123 35 232 1.6 6.4 0.00 0.00 0.00 20 1016.1
20260903001654 34 258 4.8 9.7 0.00 0.00 0.00 22 1016.0
20260903000130 34 246 6.4 11.3 0.00 0.00 0.00 21 1016.2
20260902234622 34 153 4.8 11.3 0.00 0.00 0.00 20 1016.2
20260902233138 34 169 8.0 14.5 0.00 0.00 0.00 20 1016.2
20260902231630 33 232 9.7 19.3 0.00 0.00 0.00 22 1016.4
20260902230142 33 186 3.2 6.4 0.00 0.00 0.00 22 1016.4
20260902224637 33 263 4.8 9.7 0.00 0.00 0.00 22 1016.5
20260902223128 33 244 4.8 14.5 0.00 0.00 0.00 22 1016.7
20260902221623 35 243 4.8 14.5 0.00 0.00 0.00 19 1016.8
20260902220135 35 234 6.4 17.7 0.00 0.00 0.00 19 1016.9
20260902214647 35 296 4.8 16.1 0.00 0.00 0.00 20 1016.8
20260902213121 35 274 6.4 17.7 0.00 0.00 0.00 20 1017.1
20260902211632 35 277 1.6 8.0 0.00 0.00 0.00 21 1017.2
20260902210128 35 325 6.4 19.3 0.00 0.00 0.00 20 1017.4
20260902204701 35 137 4.8 9.7 0.00 0.00 0.00 20 1017.8
20260902203153 34 286 3.2 9.7 0.00 0.00 0.00 21 1018.1
20260902201626 35 253 9.7 17.7 0.00 0.00 0.00 21 1018.2